[[{"header":{"parameterUnit":"m.s-1","parameterCategory":2,"la1":30.2991,"la2":30.254,"lo1":-89.0895,"lo2":-89.0444,"dy":0.0017,"dx":0.0017,"nx":28,"ny":28,"refTime":"2023-03-27T15:00:00:Z","depth":"0","parameterNumber":2,"parameterNumberName":"U-component_of_CURRENTS"},"data":[0,0,0,0,0,0,0,0,0,0,0,0,0,0,0,0,0,0,0,0,0,0,0,0,0,0,0,0,0,0,0,0,0,0,0,0,0,0,0,0,0,0,0,0,0,0,0,0,0,0,0,0,0,0,0,0,0,0,-0.0291,-0.0292,0,-0.0319,-0.0319,-0.0319,-0.0314,-0.0314,-0.0314,-0.0313,-0.0272,-0.0271,-0.027,0,0,0,0,0,0,0,0,0,0,0,0,0,-0.0168,-0.0171,-0.0291,-0.0292,-0.0292,-0.0319,-0.0319,-0.0319,-0.0314,-0.0314,-0.0314,-0.0313,-0.0272,-0.0271,-0.027,0,0,0,0,0,0,0,0,0,0,0,0,0,-0.0209,-0.0171,-0.0291,-0.0295,-0.0296,-0.0319,-0.0319,-0.0319,-0.0314,-0.0314,-0.0314,-0.0313,-0.0272,-0.0271,-0.027,-0.027,0,0,-0.0266,-0.0265,0,0,0,0,0,0,0,0,-0.0207,-0.0214,-0.0294,-0.0295,-0.0296,-0.0315,-0.026,-0.03,-0.0315,-0.0305,-0.0313,-0.0313,-0.0281,-0.0279,-0.0283,-0.0268,-0.0266,-0.0266,-0.0265,-0.0264,-0.0264,0,0,0,0,0,0,0,-0.0204,-0.0212,-0.03,-0.0294,-0.0296,-0.0272,-0.0278,-0.0268,-0.0292,-0.0306,-0.0306,-0.0313,-0.0281,-0.0284,-0.0282,-0.0266,-0.0266,-0.0264,-0.0264,-0.0263,-0.0302,-0.0304,0,0,0,0,0,0,-0.021,-0.021,-0.0299,-0.0301,-0.0252,-0.0276,-0.0282,-0.0307,-0.0294,-0.0293,-0.0313,-0.0313,-0.0287,-0.0283,-0.028,-0.0316,-0.0264,-0.0263,-0.0262,-0.03,-0.0303,-0.0305,0,0,0,0,0,0,-0.0208,-0.0218,-0.0298,-0.0256,-0.0265,-0.0279,-0.0307,-0.0308,-0.0298,-0.0301,-0.0297,-0.0301,-0.0286,-0.0282,-0.0287,-0.0312,-0.0262,-0.0261,-0.0298,-0.0301,-0.0304,-0.0363,0,0,0,0,0,0,-0.0204,-0.0218,-0.0224,-0.0258,-0.0268,-0.0312,-0.0307,-0.0309,-0.0305,-0.0304,-0.0289,-0.0286,-0.0286,-0.0289,-0.0285,-0.031,-0.026,-0.0296,-0.03,-0.0303,-0.0358,-0.0367,-0.0374,0,0,0,0,0,-0.02,-0.0216,-0.0225,-0.0235,-0.0282,-0.0312,-0.0315,-0.032,-0.0305,-0.0307,-0.031,-0.0286,-0.0308,-0.0289,-0.0284,-0.0309,-0.0294,-0.0299,-0.0302,-0.0355,-0.0365,-0.0374,0,0,0,0,0,0,-0.0181,-0.0218,-0.0229,-0.026,-0.0284,-0.0312,-0.0302,-0.0311,-0.0314,-0.0301,-0.0299,-0.0297,-0.0314,-0.0303,-0.0282,-0.0334,-0.0301,-0.0304,-0.0342,-0.0352,-0.036,-0.0361,-0.0259,0,0,0,0,0,-0.0178,-0.0187,-0.0232,-0.0253,-0.0256,-0.0274,-0.0279,-0.0292,-0.0305,-0.0304,-0.0305,-0.031,-0.0331,-0.0332,-0.034,-0.0356,-0.0386,-0.0374,-0.0382,-0.0388,-0.0389,-0.0487,-0.0505,-0.0318,-0.0318,-0.0318,0,0,-0.0179,-0.0196,-0.0205,-0.0246,-0.0251,-0.0275,-0.0274,-0.0283,-0.0315,-0.0298,-0.032,-0.0327,-0.034,-0.0375,-0.0381,-0.0365,-0.0459,-0.0394,-0.0399,-0.0396,-0.0493,-0.0512,-0.0528,-0.0321,-0.032,-0.032,0,0,-0.0165,-0.0193,-0.0184,-0.021,-0.0226,-0.0255,-0.0255,-0.0285,-0.0303,-0.0335,-0.0343,-0.0383,-0.0381,-0.0432,-0.0448,-0.0504,-0.0496,-0.0484,-0.0526,-0.0621,-0.0638,-0.0652,-0.0719,-0.074,-0.0491,-0.0492,-0.0492,0,-0.015,-0.0172,-0.0188,-0.0193,-0.0218,-0.0245,-0.0262,-0.0296,-0.0333,-0.0362,-0.0345,-0.0421,-0.0428,-0.0511,-0.0529,-0.0526,-0.0552,-0.0486,-0.0633,-0.0648,-0.0662,-0.0727,-0.0749,-0.0495,-0.0494,-0.0494,-0.0494,0,-0.0142,-0.0159,-0.0154,-0.018,-0.0211,-0.023,-0.029,-0.0322,-0.0345,-0.0392,-0.0465,-0.0504,-0.0552,-0.057,-0.0556,-0.066,-0.0637,-0.0631,-0.0608,-0.0685,-0.0748,-0.077,-0.05,-0.0498,-0.0497,-0.0497,0,0,-0.0116,-0.0137,-0.0139,-0.015,-0.021,-0.0237,-0.0299,-0.0374,-0.0423,-0.0479,-0.0555,-0.0621,-0.0639,-0.066,-0.0675,-0.0753,-0.0878,-0.0716,-0.0719,-0.0781,-0.106,-0.0852,-0.0855,-0.0883,-0.0887,-0.089,-0.1067,0,-0.0098,-0.0103,-0.0132,-0.0167,-0.0185,-0.0249,-0.0314,-0.0394,-0.0459,-0.0542,-0.0627,-0.0689,-0.0677,-0.0697,-0.0782,-0.0843,-0.0934,-0.0829,-0.0977,-0.0982,-0.0787,-0.0874,-0.0639,-0.0758,-0.1087,-0.1091,-0.1093,0,-0.0095,-0.0098,-0.0118,-0.0173,-0.0185,-0.0223,-0.0336,-0.0395,-0.053,-0.058,-0.0676,-0.0724,-0.0846,-0.0821,-0.101,-0.0929,-0.0995,-0.1054,-0.1063,-0.0858,-0.0812,-0.0734,-0.0784,-0.0743,-0.1126,-0.1124,-0.1121,0,-0.0084,-0.0102,-0.0117,-0.0139,-0.0206,-0.0235,-0.0279,-0.0405,-0.0458,-0.0601,-0.0649,-0.0804,-0.0861,-0.0995,-0.1073,-0.1052,-0.1264,-0.1268,-0.1167,-0.1153,-0.0976,-0.0938,-0.0998,-0.143,-0.143,-0.1429,-0.1429,0,-0.0083,-0.009,-0.0106,-0.0119,-0.0157,-0.0213,-0.0275,-0.0352,-0.0457,-0.0519,-0.065,-0.071,-0.0898,-0.1016,-0.1115,-0.1174,-0.1311,-0.1184,-0.119,-0.0986,-0.0948,-0.0917,-0.1012,-0.1436,-0.1434,-0.1433,-0.1432,0,-0.0069,-0.0084,-0.0097,-0.0136,-0.0152,-0.0179,-0.0233,-0.0274,-0.0382,-0.0467,-0.0502,-0.066,-0.0784,-0.0957,-0.1167,-0.1183,-0.126,-0.1293,-0.101,-0.0974,-0.0775,-0.0882,-0.1056,-0.1031,-0.1224,-0.1219,-0.1216,0,-0.0065,-0.0068,-0.009,-0.0097,-0.0104,-0.0135,-0.0157,-0.0239,-0.0272,-0.0411,-0.0439,-0.0574,-0.0631,-0.0842,-0.09,-0.1043,-0.1143,-0.091,-0.0826,-0.0728,-0.0859,-0.0966,-0.0942,-0.0651,-0.0643,-0.0637,-0.0632,0,-0.0047,-0.0047,-0.004,-0.0049,-0.0059,-0.0072,-0.0093,-0.011,-0.0201,-0.0255,-0.0313,-0.0362,-0.0474,-0.0472,-0.0598,-0.0651,-0.0821,-0.0776,-0.0788,-0.0497,-0.0518,-0.0501,-0.057,-0.0575,-0.0581,-0.0585,-0.0588,-0.059,-0.0029,-0.0004,0.0009,0.0008,-0.0007,-0.0007,0.0003,-0.0004,-0.0028,-0.0081,-0.0147,-0.017,-0.0142,-0.0232,-0.0281,-0.0165,-0.0434,-0.0155,-0.0328,-0.0468,-0.033,-0.0225,-0.0142,-0.0145,-0.0148,-0.015,-0.0152,0,-0.0028,0.0036,0.0061,0.0057,0.006,0.0039,0.0044,0.0074,0.009,0.0077,0.0063,0.0123,0.0235,0.0222,0.0366,0.0316,0.0209,0.0206,0.008,0.0056,0.0088,0.0248,0.0561,0.0561,0.0561,0.0561,0.056,0.056,-0.0025,0.0031,0.0076,0.0112,0.0113,0.0131,0.0144,0.0204,0.0225,0.0292,0.0318,0.0295,0.0422,0.0533,0.0641,0.058,0.0362,0.0297,0.009,0.0135,0.0088,0.0043,0.018,0.0474,0.0473,0.0237,0.0234,0.0232]},{"header":{"parameterUnit":"m.s-1","parameterCategory":2,"la1":30.2991,"la2":30.254,"lo1":-89.0895,"lo2":-89.0444,"dy":0.0017,"dx":0.0017,"nx":28,"ny":28,"refTime":"2023-03-27T15:00:00:Z","depth":"0","parameterNumber":3,"parameterNumberName":"V-component_of_CURRENTS"},"data":[0,0,0,0,0,0,0,0,0,0,0,0,0,0,0,0,0,0,0,0,0,0,0,0,0,0,0,0,0,0,0,0,0,0,0,0,0,0,0,0,0,0,0,0,0,0,0,0,0,0,0,0,0,0,0,0,0,0,-0.0032,-0.0031,0,0.0065,0.0066,0.0067,0.0153,0.0154,0.0155,0.0156,0.0271,0.0273,0.0275,0,0,0,0,0,0,0,0,0,0,0,0,0,-0.0127,-0.0126,-0.0032,-0.0031,-0.0029,0.0065,0.0066,0.0068,0.0153,0.0154,0.0155,0.0156,0.027,0.0272,0.0275,0,0,0,0,0,0,0,0,0,0,0,0,0,-0.0063,-0.0125,-0.0032,0.0025,0.0031,0.0065,0.0067,0.0068,0.0153,0.0154,0.0156,0.0157,0.0269,0.0272,0.0275,0.0265,0,0,0.0285,0.0286,0,0,0,0,0,0,0,0,-0.0067,-0.006,0.0015,0.0021,0.0028,0.0099,0.0075,0.0135,0.0152,0.0106,0.0156,0.0158,0.0214,0.0221,0.0236,0.027,0.0275,0.0285,0.0287,0.0289,0.0289,0,0,0,0,0,0,0,-0.0072,-0.0064,0.0006,0.0016,0.0024,0.0051,0.0061,0.0087,0.015,0.011,0.0117,0.0127,0.0217,0.0233,0.0239,0.0277,0.0285,0.0288,0.029,0.0291,0.0343,0.0343,0,0,0,0,0,0,-0.0086,-0.0068,0.0003,0.0009,-0.0017,0.0051,0.0063,0.0074,0.015,0.0163,0.0126,0.0131,0.0226,0.0236,0.0244,0.0229,0.0289,0.0292,0.0293,0.0344,0.0343,0.0343,0,0,0,0,0,0,-0.0088,-0.008,-0.0001,-0.0027,-0.0015,0.0051,0.0063,0.0075,0.0096,0.0162,0.0175,0.0135,0.0228,0.0239,0.0263,0.0234,0.0293,0.0296,0.0344,0.0344,0.0343,0.0203,0,0,0,0,0,0,-0.0091,-0.0082,-0.0086,-0.0028,-0.0014,-0.0001,0.0062,0.0076,0.01,0.0108,0.0174,0.0186,0.023,0.0258,0.0266,0.024,0.0298,0.0345,0.0344,0.0343,0.0208,0.0198,0.0189,0,0,0,0,0,-0.0095,-0.0107,-0.0087,-0.0079,-0.002,-0.0003,0.0005,0.0058,0.0099,0.0087,0.0144,0.0184,0.0258,0.0259,0.027,0.0243,0.0346,0.0344,0.0343,0.0213,0.02,0.0189,0,0,0,0,0,0,-0.0151,-0.0097,-0.0075,-0.0069,-0.0049,0.0011,0.0013,0.005,0.0086,0.0105,0.0171,0.0185,0.0197,0.0242,0.0242,0.026,0.0311,0.0312,0.0209,0.0197,0.0187,0.0155,0.0301,0,0,0,0,0,-0.0167,-0.0155,-0.0114,-0.011,-0.0102,-0.0047,-0.0032,0.0003,0.0047,0.0067,0.011,0.0164,0.0198,0.0215,0.0252,0.0253,0.0284,0.0248,0.0238,0.0229,0.0212,0.0251,0.0242,0.0339,0.0339,0.0339,0,0,-0.018,-0.0154,-0.0144,-0.0121,-0.0092,-0.0102,-0.0034,-0.0016,-0.0024,0.0071,0.0073,0.0127,0.0192,0.0196,0.0206,0.023,0.0211,0.0227,0.0218,0.0207,0.0249,0.0239,0.0231,0.0338,0.0338,0.0338,0,0,-0.0215,-0.0187,-0.0196,-0.0188,-0.016,-0.0138,-0.0139,-0.0093,-0.0075,-0.0064,0.0004,0.0039,0.0089,0.0122,0.015,0.0108,0.0158,0.0125,0.0043,0.0081,0.0072,0.0066,0.0055,0.0048,0.0118,0.0118,0.0118,0,-0.0243,-0.0242,-0.0201,-0.0218,-0.0218,-0.0163,-0.0188,-0.0173,-0.0126,-0.0124,-0.0079,-0.001,0.0052,0.0051,0.0045,0.0081,0.0098,0.0077,0.0064,0.0059,0.0054,0.0046,0.004,0.0111,0.0112,0.0113,0.0113,0,-0.0285,-0.0292,-0.0299,-0.0304,-0.0308,-0.0316,-0.0296,-0.0298,-0.0262,-0.0241,-0.023,-0.0151,-0.0108,-0.0084,-0.0029,-0.0039,-0.0022,0.0045,0.0085,0.0035,0.003,0.0027,0.0101,0.0104,0.0106,0.0108,0,0,-0.0332,-0.0332,-0.0336,-0.0351,-0.0351,-0.0357,-0.0387,-0.0403,-0.0421,-0.0381,-0.0403,-0.0335,-0.0287,-0.0252,-0.0184,-0.015,-0.0166,-0.0076,-0.0071,-0.0107,-0.0125,-0.0073,-0.0071,-0.0101,-0.0101,-0.0101,-0.0131,0,-0.0384,-0.0431,-0.042,-0.0472,-0.0495,-0.0472,-0.0508,-0.0512,-0.0502,-0.0516,-0.0452,-0.0436,-0.0356,-0.0327,-0.0291,-0.0189,-0.0174,-0.0167,-0.0054,-0.0052,-0.0014,-0.0072,0.0004,-0.001,-0.0133,-0.0134,-0.0134,0,-0.0431,-0.0458,-0.0518,-0.0548,-0.0558,-0.059,-0.063,-0.065,-0.0663,-0.0648,-0.0638,-0.0584,-0.0555,-0.0451,-0.036,-0.0361,-0.0263,-0.0184,-0.0181,-0.0085,-0.0004,0.0031,-0.001,0.0192,-0.0138,-0.0138,-0.0137,0,-0.0477,-0.0523,-0.0575,-0.0585,-0.062,-0.0649,-0.067,-0.0694,-0.0712,-0.0735,-0.074,-0.0711,-0.0675,-0.057,-0.0436,-0.0386,-0.0337,-0.0234,-0.0115,-0.0112,-0.0,0.0014,0.0157,-0.0167,-0.0167,-0.0167,-0.0167,0,-0.0527,-0.0565,-0.06,-0.0629,-0.0693,-0.0697,-0.0761,-0.0776,-0.08,-0.083,-0.0807,-0.0822,-0.0692,-0.0649,-0.051,-0.0362,-0.0399,-0.0156,-0.0113,-0.0049,-0.004,0.0184,0.02,-0.0168,-0.0168,-0.0168,-0.0168,0,-0.0552,-0.0577,-0.0634,-0.069,-0.0713,-0.0752,-0.08,-0.0829,-0.0859,-0.0898,-0.0903,-0.0906,-0.0877,-0.0784,-0.0632,-0.0445,-0.022,-0.0243,-0.0213,-0.0164,0.0204,0.0206,0.0242,0.0334,-0.0087,-0.0086,-0.0085,0,-0.0569,-0.0602,-0.0675,-0.0704,-0.073,-0.0787,-0.0815,-0.0852,-0.0884,-0.0943,-0.0962,-0.0981,-0.101,-0.0845,-0.0591,-0.0409,-0.0259,-0.0116,0.003,0.0209,0.0244,0.0212,0.0286,0.01,0.0102,0.0104,0.0106,0,-0.0596,-0.0619,-0.0659,-0.0724,-0.0765,-0.0809,-0.0862,-0.0899,-0.0938,-0.0983,-0.1048,-0.109,-0.0996,-0.0813,-0.0575,-0.0372,-0.0002,-0.0063,0.0135,0.0395,0.0354,0.047,0.0092,0.0123,0.0121,0.012,0.0119,0.0119,-0.0605,-0.0628,-0.0675,-0.0735,-0.0774,-0.0817,-0.0853,-0.0907,-0.0966,-0.1026,-0.1086,-0.113,-0.0898,-0.0592,-0.0365,0.0214,0.0083,0.0482,0.0458,0.0404,0.0531,0.0161,0.0249,0.0248,0.0247,0.0246,0.0246,0,-0.0608,-0.0629,-0.068,-0.0741,-0.0774,-0.0802,-0.0865,-0.0891,-0.0956,-0.1015,-0.1082,-0.094,-0.0602,-0.0248,0.0437,0.0755,0.0823,0.0901,0.0917,0.0968,0.0688,0.0749,0.0936,0.0935,0.0935,0.0935,0.0935,0.0935,-0.0604,-0.0641,-0.0671,-0.0729,-0.0763,-0.0791,-0.0821,-0.0865,-0.091,-0.093,-0.0901,-0.0903,-0.0362,0.0393,0.113,0.1243,0.1392,0.1293,0.1362,0.1246,0.1208,0.1172,0.1245,0.1532,0.1532,0.1707,0.1709,0.171]}],[{"header":{"parameterUnit":"m.s-1","parameterCategory":2,"la1":30.2991,"la2":30.254,"lo1":-89.0895,"lo2":-89.0444,"dy":0.0017,"dx":0.0017,"nx":28,"ny":28,"refTime":"2023-03-27T15:00:00:Z","depth":"2","parameterNumber":2,"parameterNumberName":"U-component_of_CURRENTS"},"data":[0,0,0,0,0,0,0,0,0,0,0,0,0,0,0,0,0,0,0,0,0,0,0,0,0,0,0,0,0,0,0,0,0,0,0,0,0,0,0,0,0,0,0,0,0,0,0,0,0,0,0,0,0,0,0,0,0,0,-0.2472,-0.2472,0,-0.2469,-0.2469,-0.2468,-0.2431,-0.243,-0.243,-0.2429,-0.2368,-0.2367,-0.2366,0,0,0,0,0,0,0,0,0,0,0,0,0,-0.242,-0.2421,-0.2472,-0.2472,-0.2472,-0.2469,-0.2469,-0.2468,-0.2431,-0.243,-0.2429,-0.2429,-0.2368,-0.2367,-0.2366,0,0,0,0,0,0,0,0,0,0,0,0,0,-0.243,-0.2422,-0.2472,-0.2456,-0.2454,-0.2469,-0.2469,-0.2468,-0.2431,-0.243,-0.2429,-0.2428,-0.2369,-0.2367,-0.2366,-0.2376,0,0,-0.2361,-0.236,0,0,0,0,0,0,0,0,-0.2429,-0.2431,-0.2458,-0.2457,-0.2455,-0.2452,-0.2428,-0.2436,-0.2431,-0.2437,-0.2429,-0.2428,-0.2394,-0.239,-0.2388,-0.2373,-0.2371,-0.2361,-0.236,-0.2359,-0.2359,0,0,0,0,0,0,0,-0.2429,-0.2431,-0.2467,-0.2458,-0.2457,-0.2441,-0.2441,-0.243,-0.2417,-0.2436,-0.2434,-0.2439,-0.2392,-0.2389,-0.2386,-0.237,-0.2361,-0.236,-0.2359,-0.2358,-0.2331,-0.2331,0,0,0,0,0,0,-0.2438,-0.2431,-0.2468,-0.2468,-0.2443,-0.2443,-0.2442,-0.2452,-0.2418,-0.2414,-0.244,-0.2438,-0.2393,-0.2388,-0.2384,-0.2395,-0.2359,-0.2358,-0.2357,-0.2331,-0.2331,-0.2331,0,0,0,0,0,0,-0.2437,-0.2442,-0.2468,-0.2451,-0.2454,-0.2445,-0.2455,-0.2452,-0.2443,-0.2423,-0.2416,-0.2434,-0.2392,-0.2386,-0.2371,-0.2392,-0.2357,-0.2356,-0.2331,-0.2331,-0.2331,-0.2417,0,0,0,0,0,0,-0.2436,-0.2441,-0.244,-0.2452,-0.2455,-0.2495,-0.2456,-0.2453,-0.245,-0.2446,-0.2416,-0.2409,-0.239,-0.2374,-0.237,-0.2389,-0.2355,-0.233,-0.2331,-0.2331,-0.2414,-0.242,-0.2425,0,0,0,0,0,-0.2434,-0.2451,-0.244,-0.2444,-0.2458,-0.2497,-0.2497,-0.2484,-0.2451,-0.2467,-0.243,-0.241,-0.2373,-0.2373,-0.2368,-0.2388,-0.233,-0.2331,-0.2331,-0.2411,-0.2419,-0.2425,0,0,0,0,0,0,-0.2424,-0.245,-0.2438,-0.2459,-0.2481,-0.2492,-0.2499,-0.2485,-0.2468,-0.245,-0.2416,-0.2409,-0.2401,-0.2379,-0.238,-0.2378,-0.2347,-0.2347,-0.2409,-0.2416,-0.2422,-0.2426,-0.2353,0,0,0,0,0,-0.2423,-0.2441,-0.2466,-0.248,-0.2493,-0.249,-0.2496,-0.2493,-0.2486,-0.2476,-0.2452,-0.2419,-0.2401,-0.2396,-0.2375,-0.2382,-0.2353,-0.2387,-0.2393,-0.2398,-0.2396,-0.2384,-0.2389,-0.2333,-0.2333,-0.2333,0,0,-0.2417,-0.2437,-0.2441,-0.2478,-0.2486,-0.2516,-0.2491,-0.2512,-0.2525,-0.2472,-0.2467,-0.2437,-0.2403,-0.2407,-0.2402,-0.2393,-0.2396,-0.2399,-0.2404,-0.2398,-0.2385,-0.239,-0.2395,-0.2333,-0.2333,-0.2333,0,0,-0.2436,-0.244,-0.2466,-0.2493,-0.2522,-0.253,-0.2538,-0.2551,-0.2545,-0.2547,-0.2503,-0.2485,-0.2461,-0.2448,-0.2435,-0.2459,-0.2422,-0.245,-0.2494,-0.2483,-0.2488,-0.2492,-0.2458,-0.2458,-0.2461,-0.2461,-0.2461,0,-0.2424,-0.2463,-0.248,-0.2521,-0.254,-0.2538,-0.2572,-0.2578,-0.2578,-0.2576,-0.2554,-0.251,-0.2482,-0.2485,-0.2489,-0.2475,-0.2451,-0.2476,-0.2493,-0.2496,-0.2499,-0.2463,-0.2462,-0.2465,-0.2465,-0.2465,-0.2464,0,-0.2468,-0.2498,-0.2521,-0.2566,-0.2592,-0.2626,-0.2645,-0.2654,-0.2636,-0.2634,-0.2626,-0.2592,-0.2566,-0.256,-0.2531,-0.2539,-0.251,-0.2499,-0.2482,-0.251,-0.2469,-0.2467,-0.2471,-0.247,-0.2469,-0.2468,0,0,-0.2435,-0.2533,-0.2534,-0.2567,-0.2618,-0.2646,-0.2675,-0.2705,-0.2713,-0.2705,-0.2718,-0.2683,-0.2656,-0.2638,-0.2606,-0.2598,-0.2593,-0.2561,-0.2558,-0.2538,-0.2552,-0.2367,-0.2346,-0.2591,-0.2591,-0.2591,-0.2515,0,-0.2457,-0.2544,-0.2581,-0.2643,-0.2687,-0.2706,-0.2734,-0.2755,-0.2759,-0.2774,-0.2748,-0.2737,-0.2691,-0.2676,-0.2667,-0.2608,-0.2591,-0.2613,-0.2517,-0.2513,-0.2356,-0.2339,-0.2139,-0.2039,-0.2513,-0.2512,-0.2512,0,-0.2474,-0.2537,-0.2608,-0.2691,-0.2708,-0.2732,-0.2771,-0.2799,-0.2824,-0.2825,-0.2823,-0.2802,-0.2782,-0.2743,-0.2669,-0.2686,-0.2621,-0.2577,-0.2573,-0.2366,-0.2323,-0.2086,-0.2017,-0.2507,-0.2508,-0.2508,-0.2508,0,-0.244,-0.2546,-0.2601,-0.263,-0.2721,-0.2735,-0.2765,-0.2798,-0.281,-0.2848,-0.2837,-0.2845,-0.2793,-0.2764,-0.2643,-0.2667,-0.2548,-0.2575,-0.235,-0.2336,-0.2125,-0.2091,-0.2523,-0.2523,-0.2523,-0.2523,-0.2523,0,-0.2443,-0.2482,-0.2585,-0.2612,-0.2662,-0.2721,-0.2749,-0.2783,-0.2815,-0.2794,-0.2841,-0.2786,-0.2789,-0.2714,-0.2662,-0.2461,-0.2554,-0.2336,-0.2298,-0.2145,-0.2115,-0.2491,-0.2489,-0.252,-0.2521,-0.2522,-0.2522,0,-0.2384,-0.2458,-0.2524,-0.2621,-0.2646,-0.2668,-0.2723,-0.2731,-0.2766,-0.2739,-0.2739,-0.2723,-0.2597,-0.2574,-0.2486,-0.2407,-0.2299,-0.2205,-0.2006,-0.1943,-0.2105,-0.2108,-0.1983,-0.1976,-0.197,-0.1965,-0.196,0,-0.2368,-0.2397,-0.2504,-0.252,-0.2554,-0.26,-0.2613,-0.2687,-0.268,-0.2644,-0.2603,-0.2507,-0.2372,-0.2191,-0.2048,-0.192,-0.2071,-0.1679,-0.1683,-0.2071,-0.2048,-0.206,-0.2071,-0.145,-0.1441,-0.1435,-0.1429,0,-0.2312,-0.2337,-0.238,-0.2439,-0.2459,-0.2494,-0.2512,-0.2502,-0.253,-0.2476,-0.2331,-0.2228,-0.2002,-0.1751,-0.1591,-0.1493,-0.17,-0.1532,-0.1984,-0.1602,-0.1556,-0.1538,-0.1568,-0.137,-0.1376,-0.138,-0.1383,-0.1386,-0.2231,-0.224,-0.2286,-0.2324,-0.2355,-0.2338,-0.2302,-0.229,-0.2227,-0.2076,-0.2046,-0.1817,-0.1682,-0.1314,-0.1157,-0.1049,-0.1197,-0.1173,-0.12,-0.1232,-0.1168,-0.1112,-0.083,-0.0833,-0.0835,-0.0837,-0.0839,0,-0.2112,-0.213,-0.2164,-0.2194,-0.2176,-0.2237,-0.2191,-0.2091,-0.1931,-0.1813,-0.1638,-0.1308,-0.1054,-0.0979,-0.0698,-0.059,-0.0628,-0.0567,-0.0669,-0.0724,-0.0774,-0.0696,-0.0228,-0.0227,-0.0226,-0.0225,0,0,-0.2042,-0.2011,-0.2038,-0.1993,-0.2011,-0.1925,-0.1859,-0.1703,-0.1586,-0.1341,-0.1198,-0.1086,-0.1006,-0.0694,-0.0525,-0.0379,-0.0572,-0.0311,-0.0792,-0.0975,-0.1026,-0.1089,-0.1022,0,0,0,0,0]},{"header":{"parameterUnit":"m.s-1","parameterCategory":2,"la1":30.2991,"la2":30.254,"lo1":-89.0895,"lo2":-89.0444,"dy":0.0017,"dx":0.0017,"nx":28,"ny":28,"refTime":"2023-03-27T15:00:00:Z","depth":"2","parameterNumber":3,"parameterNumberName":"V-component_of_CURRENTS"},"data":[0,0,0,0,0,0,0,0,0,0,0,0,0,0,0,0,0,0,0,0,0,0,0,0,0,0,0,0,0,0,0,0,0,0,0,0,0,0,0,0,0,0,0,0,0,0,0,0,0,0,0,0,0,0,0,0,0,0,-0.0017,-0.0015,0,0.0145,0.0147,0.0149,0.0176,0.0174,0.0173,0.0172,0.0241,0.0244,0.0247,0,0,0,0,0,0,0,0,0,0,0,0,0,-0.0124,-0.0123,-0.0017,-0.0015,-0.0013,0.0145,0.0147,0.0149,0.0176,0.0174,0.0173,0.0172,0.024,0.0244,0.0247,0,0,0,0,0,0,0,0,0,0,0,0,0,-0.0034,-0.0123,-0.0018,0.0021,0.0026,0.0145,0.0147,0.015,0.0176,0.0174,0.0173,0.0171,0.0239,0.0243,0.0248,0.0312,0,0,0.0261,0.0263,0,0,0,0,0,0,0,0,-0.0039,-0.003,0.0013,0.0019,0.0025,0.014,0.0135,0.02,0.0177,0.0117,0.0172,0.017,0.0202,0.0209,0.0242,0.0315,0.0318,0.0262,0.0265,0.0266,0.0268,0,0,0,0,0,0,0,-0.0046,-0.0036,0.0045,0.0016,0.0023,0.0093,0.0101,0.0149,0.0164,0.0122,0.0125,0.0147,0.0203,0.0238,0.0243,0.0319,0.0262,0.0266,0.0268,0.027,0.0389,0.039,0,0,0,0,0,0,-0.0069,-0.0043,0.004,0.005,-0.001,0.0095,0.0105,0.0103,0.0166,0.0175,0.0149,0.0148,0.0231,0.0238,0.0246,0.0263,0.0266,0.0271,0.0273,0.0389,0.0389,0.039,0,0,0,0,0,0,-0.0072,-0.0064,0.0033,0.0011,0.0028,0.0098,0.0096,0.0107,0.0115,0.0187,0.0194,0.0142,0.023,0.024,0.0274,0.0267,0.0273,0.0277,0.0388,0.0389,0.0389,0.0335,0,0,0,0,0,0,-0.0076,-0.0067,-0.0082,0.0008,0.0028,0.0084,0.0099,0.0112,0.0135,0.0134,0.0184,0.0191,0.0229,0.0267,0.0278,0.0273,0.028,0.0387,0.0388,0.0389,0.0337,0.0334,0.0332,0,0,0,0,0,-0.0081,-0.0093,-0.0084,-0.0073,0.0006,0.0084,0.01,0.0145,0.0135,0.0142,0.0176,0.0188,0.028,0.0272,0.0284,0.0281,0.0387,0.0388,0.0389,0.0338,0.0335,0.0332,0,0,0,0,0,0,-0.014,-0.0088,-0.0077,-0.0073,-0.0009,0.0088,0.0101,0.013,0.0166,0.0152,0.0203,0.0213,0.0239,0.0273,0.0261,0.0319,0.0333,0.0336,0.0289,0.0287,0.0285,0.0256,0.0284,0,0,0,0,0,-0.0161,-0.0168,-0.0088,-0.0087,-0.0062,0.0012,0.0045,0.0077,0.0129,0.0142,0.0181,0.022,0.0264,0.028,0.0325,0.0361,0.0392,0.0366,0.0363,0.0361,0.0348,0.0421,0.0423,0.0393,0.0393,0.0393,0,0,-0.0181,-0.0155,-0.0157,-0.0101,-0.0054,-0.0015,0.0025,0.0066,0.0091,0.0145,0.017,0.0213,0.0272,0.0311,0.0325,0.0331,0.0382,0.0363,0.036,0.0348,0.0422,0.0425,0.0427,0.0394,0.0394,0.0394,0,0,-0.0213,-0.0205,-0.0216,-0.0171,-0.0108,-0.0051,-0.005,0.0033,0.0055,0.0104,0.0142,0.0185,0.0247,0.0299,0.0329,0.0345,0.0368,0.0345,0.031,0.0381,0.0384,0.0387,0.0406,0.0411,0.0343,0.0343,0.0343,0,-0.0245,-0.0244,-0.02,-0.0187,-0.0158,-0.0079,-0.0065,-0.0012,0.007,0.0091,0.0094,0.0203,0.0248,0.0309,0.0306,0.034,0.0359,0.0313,0.0377,0.0381,0.0385,0.0404,0.041,0.0341,0.0341,0.0341,0.0341,0,-0.0265,-0.0269,-0.0267,-0.0235,-0.0196,-0.0169,-0.0089,-0.0057,-0.0024,0.0036,0.0091,0.0171,0.0227,0.0254,0.028,0.0327,0.0323,0.0365,0.0378,0.0384,0.0404,0.0412,0.0337,0.0338,0.0339,0.0339,0,0,-0.0337,-0.0295,-0.0299,-0.0294,-0.0225,-0.019,-0.0154,-0.0083,-0.0061,0.0014,0.0054,0.0133,0.0165,0.0201,0.0252,0.0311,0.035,0.0328,0.0333,0.0334,0.0458,0.0475,0.0485,0.0397,0.0399,0.04,0.0451,0,-0.0371,-0.0371,-0.0336,-0.0327,-0.0314,-0.0245,-0.0215,-0.0147,-0.0082,-0.0018,0.0072,0.0122,0.015,0.0165,0.0231,0.0326,0.0369,0.0328,0.0461,0.0464,0.0472,0.0496,0.0512,0.0561,0.0458,0.046,0.0461,0,-0.0408,-0.0401,-0.0412,-0.0378,-0.0369,-0.0359,-0.0302,-0.0261,-0.0152,-0.0107,-0.0035,0.0043,0.0125,0.0159,0.0302,0.0266,0.0337,0.0415,0.0421,0.046,0.0498,0.0546,0.0579,0.0474,0.0473,0.0472,0.0471,0,-0.0477,-0.0457,-0.0476,-0.0463,-0.0408,-0.0419,-0.0395,-0.0308,-0.0271,-0.0178,-0.014,-0.0017,0.0024,0.0156,0.0273,0.029,0.0433,0.0496,0.0578,0.0578,0.063,0.0633,0.0597,0.0597,0.0597,0.0597,0.0596,0,-0.0527,-0.0539,-0.0523,-0.0531,-0.0552,-0.0503,-0.0505,-0.0458,-0.0378,-0.0329,-0.0218,-0.0157,0.0022,0.013,0.0259,0.0414,0.0416,0.0566,0.0605,0.0609,0.0609,0.0571,0.0567,0.0599,0.0598,0.0598,0.0597,0,-0.0597,-0.0584,-0.0602,-0.0587,-0.059,-0.0618,-0.0591,-0.0565,-0.0512,-0.0444,-0.0425,-0.0273,-0.0157,0.0012,0.0216,0.0373,0.0542,0.0587,0.0545,0.0579,0.0645,0.0638,0.073,0.0731,0.0732,0.0733,0.0734,0,-0.0626,-0.0648,-0.0664,-0.0683,-0.0692,-0.0713,-0.0708,-0.0651,-0.0605,-0.0506,-0.0461,-0.0363,-0.0251,0.0026,0.0318,0.0552,0.0496,0.0677,0.0749,0.0637,0.0665,0.0656,0.0648,0.0783,0.0784,0.0785,0.0785,0,-0.0672,-0.0695,-0.071,-0.0758,-0.0783,-0.0775,-0.0766,-0.0739,-0.0654,-0.0597,-0.0504,-0.0425,-0.0159,0.0143,0.0421,0.0556,0.0656,0.0706,0.0624,0.0743,0.0691,0.0717,0.0706,0.0794,0.0793,0.0792,0.0792,0.0791,-0.0708,-0.0741,-0.0774,-0.0814,-0.084,-0.0822,-0.0807,-0.076,-0.0698,-0.0585,-0.0522,-0.0288,-0.0062,0.0466,0.055,0.0707,0.0777,0.0838,0.0834,0.0829,0.0823,0.0776,0.0889,0.0889,0.0889,0.0889,0.0889,0,-0.072,-0.076,-0.081,-0.0838,-0.0855,-0.087,-0.0816,-0.0767,-0.0695,-0.0567,-0.0483,-0.0039,0.0254,0.046,0.0805,0.0932,0.0893,0.0832,0.0797,0.0793,0.0788,0.0776,0.0833,0.0832,0.083,0.0829,0,0,-0.0725,-0.077,-0.0794,-0.0828,-0.086,-0.0853,-0.0823,-0.076,-0.0642,-0.0452,-0.0176,0.0038,0.0407,0.0605,0.0668,0.0766,0.0689,0.071,0.0765,0.0701,0.0691,0.0832,0.0816,0,0,0,0,0]}],[{"header":{"parameterUnit":"m.s-1","parameterCategory":2,"la1":30.2991,"la2":30.254,"lo1":-89.0895,"lo2":-89.0444,"dy":0.0017,"dx":0.0017,"nx":28,"ny":28,"refTime":"2023-03-27T15:00:00:Z","depth":"4","parameterNumber":2,"parameterNumberName":"U-component_of_CURRENTS"},"data":[0,0,0,0,0,0,0,0,0,0,0,0,0,0,0,0,0,0,0,0,0,0,0,0,0,0,0,0,0,0,0,0,0,0,0,0,0,0,0,0,0,0,0,0,0,0,0,0,0,0,0,0,0,0,0,0,0,0,-0.0964,-0.0965,0,-0.1059,-0.106,-0.1061,-0.1095,-0.1095,-0.1095,-0.1095,-0.1271,-0.1276,-0.1281,0,0,0,0,0,0,0,0,0,0,0,0,0,-0.0824,-0.0826,-0.0963,-0.0965,-0.0966,-0.1059,-0.106,-0.1061,-0.1095,-0.1095,-0.1095,-0.1095,-0.127,-0.1275,-0.1281,0,0,0,0,0,0,0,0,0,0,0,0,0,-0.0897,-0.0827,-0.0963,-0.0996,-0.1,-0.1058,-0.106,-0.1061,-0.1095,-0.1095,-0.1095,-0.1095,-0.1268,-0.1275,-0.1282,-0.1331,0,0,-0.1304,-0.1307,0,0,0,0,0,0,0,0,-0.0892,-0.0901,-0.099,-0.0994,-0.0999,-0.1067,-0.1076,-0.1156,-0.1095,-0.1057,-0.1095,-0.1095,-0.1212,-0.1224,-0.1238,-0.1339,-0.1347,-0.1305,-0.1309,-0.1312,-0.1314,0,0,0,0,0,0,0,-0.0887,-0.0898,-0.0999,-0.0991,-0.0997,-0.1011,-0.102,-0.1091,-0.1134,-0.106,-0.1064,-0.1078,-0.1215,-0.1231,-0.1243,-0.1349,-0.1305,-0.1311,-0.1316,-0.1318,-0.1551,-0.1553,0,0,0,0,0,0,-0.088,-0.0893,-0.0996,-0.1002,-0.0946,-0.1013,-0.1024,-0.1043,-0.1132,-0.1145,-0.1078,-0.1079,-0.1219,-0.1234,-0.1249,-0.1386,-0.1312,-0.1319,-0.1323,-0.1549,-0.1551,-0.1553,0,0,0,0,0,0,-0.0876,-0.0888,-0.0992,-0.0951,-0.0965,-0.1016,-0.1037,-0.1045,-0.1066,-0.1145,-0.1159,-0.109,-0.1219,-0.1239,-0.1293,-0.139,-0.1322,-0.1329,-0.1547,-0.155,-0.1552,-0.1613,0,0,0,0,0,0,-0.0872,-0.0886,-0.0899,-0.0951,-0.0967,-0.1027,-0.1038,-0.1048,-0.1076,-0.1078,-0.1161,-0.1176,-0.122,-0.1281,-0.13,-0.1399,-0.1335,-0.1545,-0.1548,-0.1551,-0.1609,-0.1618,-0.1625,0,0,0,0,0,-0.0867,-0.088,-0.0899,-0.0912,-0.0983,-0.1028,-0.1037,-0.1071,-0.1076,-0.1087,-0.1125,-0.1174,-0.1319,-0.1287,-0.1309,-0.1413,-0.1543,-0.1547,-0.1551,-0.1605,-0.1616,-0.1625,0,0,0,0,0,0,-0.0823,-0.0887,-0.0908,-0.094,-0.0982,-0.1034,-0.1056,-0.1072,-0.1111,-0.1135,-0.1176,-0.1194,-0.1305,-0.1322,-0.1286,-0.1486,-0.1449,-0.1458,-0.1483,-0.1494,-0.1502,-0.1476,-0.1341,0,0,0,0,0,-0.0821,-0.0852,-0.0909,-0.0936,-0.0961,-0.1009,-0.1032,-0.1071,-0.1112,-0.113,-0.1182,-0.1252,-0.134,-0.1377,-0.1461,-0.1539,-0.1495,-0.1624,-0.1632,-0.1639,-0.1631,-0.1639,-0.1647,-0.1567,-0.1567,-0.1567,0,0,-0.0816,-0.0852,-0.0873,-0.0929,-0.0971,-0.1004,-0.1022,-0.1084,-0.1116,-0.1149,-0.121,-0.1296,-0.1368,-0.1479,-0.153,-0.15,-0.1628,-0.1644,-0.165,-0.1637,-0.1644,-0.1652,-0.1659,-0.157,-0.1569,-0.1569,0,0,-0.0818,-0.0854,-0.0884,-0.0905,-0.0978,-0.1022,-0.1035,-0.1109,-0.1148,-0.1215,-0.1273,-0.1367,-0.1478,-0.1551,-0.1599,-0.1687,-0.1685,-0.1757,-0.177,-0.1779,-0.1785,-0.179,-0.1687,-0.1682,-0.1744,-0.1744,-0.1745,0,-0.0811,-0.0854,-0.0897,-0.0912,-0.0933,-0.1021,-0.1049,-0.1102,-0.1183,-0.1234,-0.1243,-0.1429,-0.1509,-0.1624,-0.1685,-0.1713,-0.1678,-0.173,-0.1788,-0.1793,-0.1797,-0.169,-0.1684,-0.1748,-0.1747,-0.1747,-0.1747,0,-0.0819,-0.0855,-0.0872,-0.0925,-0.0945,-0.1001,-0.1068,-0.1146,-0.1218,-0.1274,-0.1413,-0.1496,-0.1607,-0.1674,-0.172,-0.1828,-0.1777,-0.181,-0.1758,-0.1808,-0.1692,-0.1685,-0.1753,-0.1752,-0.1751,-0.175,0,0,-0.0802,-0.0875,-0.0871,-0.091,-0.0966,-0.1,-0.1076,-0.1183,-0.1251,-0.1351,-0.1402,-0.1597,-0.167,-0.1726,-0.1808,-0.1821,-0.1834,-0.1845,-0.1844,-0.1729,-0.1779,-0.1703,-0.1686,-0.1895,-0.1896,-0.1897,-0.1664,0,-0.081,-0.0843,-0.087,-0.0922,-0.0962,-0.1041,-0.1105,-0.1205,-0.1289,-0.1365,-0.1475,-0.1585,-0.1678,-0.1765,-0.1801,-0.1844,-0.1829,-0.1888,-0.1758,-0.1751,-0.1671,-0.1683,-0.1899,-0.1658,-0.1656,-0.1655,-0.1654,0,-0.0787,-0.0834,-0.0869,-0.0974,-0.0998,-0.1047,-0.1172,-0.1216,-0.1339,-0.1426,-0.1524,-0.1603,-0.1694,-0.1745,-0.1776,-0.1818,-0.182,-0.1803,-0.1795,-0.1701,-0.1666,-0.1613,-0.164,-0.1641,-0.1642,-0.1643,-0.1644,0,-0.0738,-0.0822,-0.0866,-0.0878,-0.1006,-0.1078,-0.1143,-0.1255,-0.1291,-0.1433,-0.1492,-0.16,-0.1647,-0.1676,-0.1732,-0.1763,-0.1684,-0.1706,-0.1596,-0.1584,-0.1692,-0.169,-0.1699,-0.17,-0.17,-0.1701,-0.1702,0,-0.0701,-0.0744,-0.0873,-0.0892,-0.0976,-0.1054,-0.1125,-0.1235,-0.132,-0.135,-0.1512,-0.1547,-0.1652,-0.1645,-0.1671,-0.1599,-0.1642,-0.1575,-0.1541,-0.1713,-0.1717,-0.1681,-0.1682,-0.1692,-0.1694,-0.1696,-0.1697,0,-0.0608,-0.0686,-0.0751,-0.0906,-0.0945,-0.0976,-0.106,-0.1121,-0.1253,-0.1268,-0.1324,-0.1472,-0.1496,-0.1531,-0.1528,-0.1504,-0.1455,-0.1427,-0.1527,-0.1505,-0.1329,-0.1337,-0.1207,-0.1203,-0.1199,-0.1196,-0.1194,0,-0.0567,-0.0599,-0.0698,-0.0715,-0.0788,-0.0851,-0.091,-0.1055,-0.1091,-0.1211,-0.1217,-0.1287,-0.138,-0.1239,-0.1338,-0.1287,-0.1328,-0.1247,-0.1369,-0.131,-0.1289,-0.1302,-0.1313,-0.1188,-0.1187,-0.1186,-0.1185,0,-0.0509,-0.054,-0.0585,-0.0609,-0.0669,-0.0697,-0.0789,-0.0809,-0.0964,-0.1067,-0.1093,-0.1125,-0.1117,-0.1139,-0.1135,-0.1127,-0.127,-0.121,-0.1218,-0.1332,-0.1286,-0.1271,-0.1287,-0.1173,-0.1175,-0.1176,-0.1177,0,-0.046,-0.0446,-0.0499,-0.051,-0.0547,-0.0578,-0.0629,-0.0712,-0.0761,-0.0923,-0.0896,-0.0998,-0.106,-0.1052,-0.1046,-0.1039,-0.1032,-0.1005,-0.1023,-0.1038,-0.1117,-0.1042,-0.0803,0,0,0,0,0,-0.0406,-0.0387,-0.0402,-0.0422,-0.0449,-0.0481,-0.058,-0.0656,-0.0787,-0.076,-0.0831,-0.0842,-0.0865,-0.0912,-0.0872,-0.0996,-0.1052,-0.0947,-0.1033,-0.1106,-0.112,-0.1245,0,0,0,0,0,0,-0.037,-0.0372,-0.038,-0.0359,-0.035,-0.0401,-0.0465,-0.0562,-0.0564,-0.0674,-0.0685,-0.0753,-0.0788,-0.0846,-0.0834,-0.085,-0.0881,-0.0995,-0.0992,-0.1098,-0.1111,-0.1122,-0.1255,0,0,0,0,0]},{"header":{"parameterUnit":"m.s-1","parameterCategory":2,"la1":30.2991,"la2":30.254,"lo1":-89.0895,"lo2":-89.0444,"dy":0.0017,"dx":0.0017,"nx":28,"ny":28,"refTime":"2023-03-27T15:00:00:Z","depth":"4","parameterNumber":3,"parameterNumberName":"V-component_of_CURRENTS"},"data":[0,0,0,0,0,0,0,0,0,0,0,0,0,0,0,0,0,0,0,0,0,0,0,0,0,0,0,0,0,0,0,0,0,0,0,0,0,0,0,0,0,0,0,0,0,0,0,0,0,0,0,0,0,0,0,0,0,0,-0.0257,-0.0257,0,-0.0255,-0.0255,-0.0255,-0.0226,-0.0226,-0.0225,-0.0224,-0.0181,-0.0181,-0.018,0,0,0,0,0,0,0,0,0,0,0,0,0,-0.0225,-0.0226,-0.0257,-0.0257,-0.0257,-0.0255,-0.0255,-0.0255,-0.0226,-0.0226,-0.0225,-0.0224,-0.0181,-0.0181,-0.018,0,0,0,0,0,0,0,0,0,0,0,0,0,-0.0233,-0.0226,-0.0257,-0.0242,-0.0241,-0.0255,-0.0255,-0.0255,-0.0227,-0.0225,-0.0224,-0.0223,-0.0182,-0.0181,-0.018,-0.0198,0,0,-0.0178,-0.0178,0,0,0,0,0,0,0,0,-0.0232,-0.0234,-0.0244,-0.0243,-0.0242,-0.0239,-0.0228,-0.0234,-0.0227,-0.0232,-0.0224,-0.0223,-0.0198,-0.0196,-0.0198,-0.0196,-0.0194,-0.0178,-0.0178,-0.0177,-0.0177,0,0,0,0,0,0,0,-0.0232,-0.0234,-0.0256,-0.0244,-0.0243,-0.0232,-0.0232,-0.0229,-0.022,-0.0232,-0.023,-0.0229,-0.0196,-0.0199,-0.0197,-0.0194,-0.0178,-0.0177,-0.0177,-0.0177,-0.0195,-0.0196,0,0,0,0,0,0,-0.0234,-0.0233,-0.0256,-0.0256,-0.0234,-0.0233,-0.0233,-0.0241,-0.0221,-0.0218,-0.023,-0.0228,-0.0201,-0.0198,-0.0195,-0.0206,-0.0177,-0.0177,-0.0176,-0.0194,-0.0195,-0.0196,0,0,0,0,0,0,-0.0233,-0.0236,-0.0256,-0.0244,-0.0246,-0.0235,-0.0244,-0.0242,-0.0253,-0.0221,-0.0216,-0.0244,-0.02,-0.0196,-0.0216,-0.0204,-0.0176,-0.0176,-0.0193,-0.0194,-0.0195,-0.0233,0,0,0,0,0,0,-0.0232,-0.0236,-0.0248,-0.0244,-0.0246,-0.0274,-0.0245,-0.0243,-0.0253,-0.0251,-0.0231,-0.0225,-0.0199,-0.0218,-0.0216,-0.0203,-0.0175,-0.0192,-0.0193,-0.0195,-0.0231,-0.0236,-0.024,0,0,0,0,0,-0.0232,-0.0255,-0.0249,-0.0251,-0.0261,-0.0275,-0.0276,-0.0264,-0.0256,-0.0268,-0.0265,-0.0226,-0.0225,-0.0219,-0.0216,-0.0203,-0.0191,-0.0193,-0.0195,-0.0229,-0.0235,-0.024,0,0,0,0,0,0,-0.0244,-0.0255,-0.0247,-0.0271,-0.0275,-0.027,-0.0281,-0.0278,-0.0286,-0.0281,-0.0255,-0.0251,-0.0258,-0.0239,-0.0233,-0.0214,-0.0195,-0.0196,-0.0221,-0.0227,-0.0231,-0.0214,-0.0175,0,0,0,0,0,-0.0254,-0.0274,-0.0276,-0.0294,-0.0299,-0.0294,-0.03,-0.0292,-0.0296,-0.0298,-0.0288,-0.0274,-0.0264,-0.0255,-0.0248,-0.025,-0.0197,-0.0235,-0.024,-0.0244,-0.0229,-0.0168,-0.0165,-0.0202,-0.0202,-0.0202,0,0,-0.0263,-0.027,-0.0282,-0.0298,-0.0298,-0.0319,-0.0295,-0.0308,-0.0327,-0.0293,-0.032,-0.0299,-0.0274,-0.0272,-0.027,-0.0252,-0.0204,-0.0246,-0.0249,-0.0232,-0.017,-0.0166,-0.0162,-0.0204,-0.0203,-0.0203,0,0,-0.0291,-0.0298,-0.0325,-0.0338,-0.0345,-0.0341,-0.0351,-0.0356,-0.036,-0.039,-0.0357,-0.0348,-0.0344,-0.0314,-0.03,-0.0332,-0.0239,-0.0309,-0.0305,-0.0247,-0.0243,-0.0238,-0.0154,-0.0141,-0.03,-0.03,-0.03,0,-0.03,-0.0333,-0.0334,-0.0364,-0.0377,-0.0358,-0.0388,-0.0396,-0.0408,-0.0405,-0.0407,-0.0376,-0.0367,-0.0335,-0.0334,-0.0341,-0.0268,-0.0285,-0.025,-0.0245,-0.0239,-0.0154,-0.0139,-0.0302,-0.0302,-0.0302,-0.0302,0,-0.0348,-0.0377,-0.0394,-0.0423,-0.0441,-0.0461,-0.0469,-0.048,-0.0481,-0.0472,-0.0459,-0.0441,-0.0408,-0.0399,-0.0375,-0.0317,-0.0264,-0.027,-0.0231,-0.0237,-0.0147,-0.0132,-0.0305,-0.0304,-0.0304,-0.0303,0,0,-0.0356,-0.0416,-0.0423,-0.0447,-0.0473,-0.0491,-0.0521,-0.0528,-0.0533,-0.0526,-0.052,-0.0494,-0.0443,-0.0423,-0.0376,-0.0317,-0.0227,-0.0259,-0.0255,-0.0164,-0.0047,-0.0041,-0.0023,-0.0202,-0.02,-0.0199,0.0006,0,-0.0387,-0.0455,-0.0477,-0.0533,-0.0562,-0.0566,-0.06,-0.0602,-0.059,-0.058,-0.0529,-0.0509,-0.0463,-0.0431,-0.0364,-0.026,-0.0187,-0.0279,-0.0063,-0.0056,-0.0042,-0.0007,-0.0192,0.0018,0.0022,0.0024,0.0026,0,-0.0425,-0.0462,-0.0533,-0.0586,-0.06,-0.0635,-0.0655,-0.0681,-0.0652,-0.0639,-0.0576,-0.0523,-0.0424,-0.041,-0.0205,-0.0246,-0.0143,-0.0067,-0.0058,-0.0025,-0.0022,0.0022,0.0055,0.0053,0.0051,0.0049,0.0047,0,-0.0425,-0.0498,-0.0556,-0.058,-0.064,-0.067,-0.0693,-0.0692,-0.0699,-0.0654,-0.0614,-0.051,-0.0431,-0.0298,-0.0109,-0.0145,0.0128,0.0076,0.0181,0.0184,0.0135,0.0128,0.0208,0.0208,0.0208,0.0207,0.0207,0,-0.0446,-0.0489,-0.0566,-0.0597,-0.0655,-0.0694,-0.073,-0.0735,-0.0727,-0.0698,-0.0624,-0.0543,-0.039,-0.0213,-0.0082,0.0137,0.0157,0.0207,0.0238,0.0114,0.0102,0.0148,0.0138,0.0215,0.0213,0.0212,0.021,0,-0.0439,-0.0494,-0.0559,-0.0636,-0.0661,-0.0704,-0.0755,-0.0762,-0.0747,-0.0698,-0.0674,-0.053,-0.0292,-0.0106,0.0129,0.0186,0.0362,0.0431,0.034,0.0359,0.0367,0.0353,0.0532,0.0534,0.0535,0.0537,0.0538,0,-0.0443,-0.0481,-0.0578,-0.0613,-0.0652,-0.0712,-0.074,-0.0771,-0.0759,-0.0666,-0.062,-0.0406,-0.0277,0.0102,0.0243,0.05,0.0507,0.0571,0.0409,0.0389,0.0402,0.0385,0.0369,0.054,0.0541,0.0541,0.0542,0,-0.0437,-0.0483,-0.0537,-0.0601,-0.0651,-0.0699,-0.0733,-0.0727,-0.0724,-0.0698,-0.0525,-0.0364,-0.0089,0.013,0.0363,0.052,0.0497,0.0587,0.0581,0.0429,0.0402,0.0409,0.0391,0.0548,0.0547,0.0546,0.0546,0,-0.0429,-0.0464,-0.0532,-0.0585,-0.0643,-0.0668,-0.0696,-0.0659,-0.0654,-0.056,-0.0492,-0.0237,-0.0105,0.0148,0.0354,0.0524,0.0497,0.0453,0.0453,0.0449,0.0333,0.028,0.0441,0,0,0,0,0,-0.0403,-0.0438,-0.0497,-0.0567,-0.0618,-0.0646,-0.0677,-0.0694,-0.0676,-0.0545,-0.0528,-0.0274,0.0009,0.0138,0.0316,0.0335,0.0504,0.0533,0.0449,0.0579,0.0573,0.0447,0,0,0,0,0,0,-0.0394,-0.0444,-0.0486,-0.0531,-0.0564,-0.0616,-0.0636,-0.063,-0.0558,-0.0512,-0.0324,-0.0284,0.0036,-0.0048,0.032,0.0363,0.0309,0.067,0.0671,0.0583,0.0577,0.0572,0.044,0,0,0,0,0]}]]